This demonstration page uses our WeatherBlox Daily Observations layout. Learn more.

Left ArrowRight Arrow

38.20091, -84.87328

Hourly Observations for January 26, 2020

Temp ( °F °C ) Dew Point ( °F °C ) Humidity (%) Winds ( mph kmh ) Pressure ( in mb ) Visibility ( mi km ) Precip ( " mm )
12:04 am 00:04 Cloudy 34 1.1 30 -1.1 85 85 WSW 9 15 30.07 1018 10 16 0.00 0.00
12:24 am 00:24 Cloudy 34 1.1 30 -1.1 85 85 WSW 9 15 30.07 1018 10 16 0.00 0.00
12:53 am 00:53 Cloudy 34 1.1 30 -1.1 85 85 WSW 7 11 30.04 1017 10 16 0.00 0.00
1:16 am 01:16 Cloudy 34 1.1 30 -1.1 85 85 WSW 7 11 30.07 1018 10 16 0.00 0.00
1:53 am 01:53 Cloudy 34 1.1 30 -1.1 85 85 WSW 8 13 30.04 1017 10 16 0.00 0.00
2:53 am 02:53 Cloudy 34 1.1 29 -1.7 82 82 WSW 7 11 30.05 1018 10 16 0.00 0.00
3:53 am 03:53 Cloudy 33 0.6 27 -2.8 78 78 WSW 6 9 30.05 1018 10 16 0.00 0.00
4:53 am 04:53 Cloudy 33 0.6 27 -2.8 78 78 WSW 7 11 30.04 1017 10 16 0.00 0.00
5:53 am 05:53 Cloudy 32 0 27 -2.8 82 82 WSW 6 9 30.04 1017 10 16 0.00 0.00
6:46 am 06:46 Cloudy 32 0 28 -2.2 85 85 SW 7 11 30.08 1019 10 16 0.00 0.00
6:53 am 06:53 Cloudy 33 0.6 28 -2.2 82 82 SW 9 15 30.05 1018 10 16 0.00 0.00
7:53 am 07:53 Cloudy 33 0.6 28 -2.2 82 82 SW 7 11 30.06 1018 10 16 0.00 0.00
8:53 am 08:53 Cloudy 34 1.1 29 -1.7 82 82 SW 6 9 30.06 1018 9 14 0.00 0.00
9:24 am 09:24 Mostly Cloudy 35 1.7 30 -1.1 82 82 SW 6 9 30.08 1018 9 14 0.00 0.00
9:53 am 09:53 Cloudy 36 2.2 31 -0.6 82 82 SW 9 15 30.05 1018 9 14 0.00 0.00
10:53 am 10:53 Cloudy 38 3.3 30 -1.1 73 73 WSW 9 15 30.05 1018 10 16 0.00 0.00
11:53 am 11:53 Cloudy 40 4.4 31 -0.6 70 70 WSW 8 13 30.04 1017 10 16 0.00 0.00
12:53 pm 12:53 Cloudy 42 5.6 32 0 68 68 SW 10 17 30.00 1016 10 16 0.00 0.00
1:16 pm 13:16 Partly Cloudy 44 6.7 32 0 63 63 SW 9 15 30.00 1016 10 16 0.00 0.00
1:53 pm 13:53 Mostly Sunny 45 7.2 32 0 61 61 SSW 8 13 29.97 1015 10 16 0.00 0.00
2:53 pm 14:53 Cloudy 45 7.2 29 -1.7 54 54 SW 12 19 29.96 1015 10 16 0.00 0.00
3:53 pm 15:53 Cloudy 45 7.2 32 0 61 61 SW 10 17 29.95 1014 10 16 0.00 0.00
4:53 pm 16:53 Cloudy 44 6.7 33 0.6 65 65 SW 10 17 29.94 1014 10 16 0.00 0.00
5:53 pm 17:53 Cloudy 43 6.1 34 1.1 71 71 SW 7 11 29.94 1014 10 16 0.00 0.00
6:53 pm 18:53 Partly Cloudy 38 3.3 32 0 79 79 SSW 5 7 29.95 1014 10 16 0.00 0.00
7:53 pm 19:53 Cloudy 40 4.4 34 1.1 79 79 SSW 9 15 29.95 1014 10 16 0.00 0.00
8:53 pm 20:53 Cloudy 40 4.4 34 1.1 79 79 SW 7 11 29.94 1014 10 16 0.00 0.00
9:53 pm 21:53 Cloudy 40 4.4 34 1.1 79 79 SW 6 9 29.93 1014 10 16 0.00 0.00
10:53 pm 22:53 Cloudy 40 4.4 35 1.7 83 83 SW 7 11 29.92 1013 10 16 0.00 0.00
11:53 pm 23:53 Cloudy 39 3.9 35 1.7 86 86 SW 5 7 29.91 1013 10 16 0.00 0.00

Powered by AerisWeather